Location: Unspecified
(0.0000°N, 0.0000°E)
Time: 18:36:21
(UTC+00:00)

STARLINK-1873 - Pass Details

Date: 04 December 2020
Orbit: 379 x 381 km, 53.1° (Epoch: 24 January)

Event Time Altitude Azimuth Distance (km) Brightness Sun altitude
Exits shadow 04:10:56 13° 187° (S) 1,247 5.6 -22.9°
Drops below altitude 10° 04:11:23 10° 181° (S) 1,391 5.9 -22.8°
Sets 04:13:42 0° 166° (SSE) 2,243 7.3 -22.2°
